Terminal Aerodrome Forecast
Issued by NWS

Home | Current Version | Previous Version | Text Only | Print | Product List | Glossary On
Versions: 1 2 3 4 5 6 7 8 9 10 11 12 13 14 15 16 17 18 19 20 21 22 23 24 25
000
FTUS44 KOUN 160520
TAFWWR
TAF
KWWR 160520Z 1606/1706 02010KT P6SM SCT025 OVC050
      TEMPO 1610/1614 OVC015
     FM161500 14009KT P6SM BKN015
     FM161800 18010G15KT P6SM FEW030=

USA.gov is the U.S. government's official web portal to all federal, state and local government web resources and services.